Dewpoint
32 30 29 29 30 31 31 33 37 37 38 38 39 40 40 40 41 44 48 49 52 57 60 63 63 65 66 67 68 69 68 68 68 68 67 67 66 65 65 65 63 62 62
32 30 30 30 30 32 32 34 36 36 37 38 38 39 39 41 42 44 46 48 50 53 57 60 62 63 65 67 68 68 67 66 66 67 66 67 66 65 65 63 62 63 63
30 27 29 28 29 30 31 32 32 33 33 34 36 36 38 40 42 42 44 45 49 50 54 57 60 61 63 65 67 67 66 66 65 66 67 67 66 65 65 64 63 62 64
28 26 26 26 28 28 29 28 27 28 29 30 31 32 36 38 37 39 42 44 46 49 51 54 58 60 61 63 63 64 64 62 66 66 67 67 66 65 64 64 62 62 64
25 25 26 27 27 27 27 26 26 29 29 30 29 30 32 32 37 35 39 41 46 50 52 53 56 59 61 63 63 61 61 62 62 62 67 66 66 65 64 63 62 64 64
24 24 26 27 27 27 27 26 26 27 28 30 30 29 32 32 34 37 42 45 50 53 54 54 57 58 59 61 61 60 60 59 61 66 67 66 65 65 64 63 63 64 63
25 25 26 25 26 26 26 26 27 27 28 30 32 30 28 31 36 39 42 44 48 46 53 55 53 57 57 59 60 61 59 59 60 62 67 66 65 65 64 63 64 64 63
25 23 24 25 25 26 26 26 27 28 29 28 29 30 28 29 38 33 33 39 42 45 47 48 52 54 57 59 58 58 58 60 60 61 66 66 65 65 64 64 64 64 63
24 25 24 24 25 25 25 26 27 28 27 26 29 29 25 24 29 30 31 37 37 46 46 45 49 49 53 55 58 58 58 58 59 61 64 62 66 65 65 64 64 64 63
24 25 25 24 24 25 24 25 24 26 27 26 28 27 29 30 27 26 28 31 34 41 43 45 44 47 51 55 57 56 57 58 61 62 63 63 65 66 64 64 64 64 62
23 23 24 24 24 24 24 24 25 25 26 27 28 28 28 28 29 29 28 32 35 39 42 42 43 47 49 53 56 58 58 59 60 61 63 64 65 65 64 64 63 63 62
22 22 23 23 23 23 23 23 25 26 26 26 28 28 28 27 26 28 29 27 28 32 39 42 40 46 49 53 54 55 57 59 60 61 62 62 65 64 64 63 62 62 62
20 20 21 22 22 22 23 23 24 25 26 25 27 27 28 28 28 29 28 28 30 32 35 40 39 47 49 49 51 53 55 58 60 61 62 62 62 63 64 63 63 62 62
19 20 21 21 21 21 22 22 23 24 24 27 26 26 27 27 28 29 29 29 29 30 34 35 38 46 45 47 50 51 55 56 57 59 60 61 61 62 62 62 63 62 61
18 18 19 20 20 21 21 20 21 21 23 25 25 26 26 27 28 30 31 31 30 29 31 34 37 41 42 44 49 50 51 52 55 56 57 58 59 59 60 61 62 61 60
18 19 19 19 20 20 19 19 20 21 21 23 25 26 23 25 31 27 28 29 30 32 32 36 36 39 40 41 47 49 49 50 52 54 55 55 57 58 58 59 60 60 59
18 18 19 19 19 18 18 18 19 19 20 21 26 25 23 25 26 26 28 29 29 31 32 34 37 38 39 43 47 48 48 48 49 52 53 54 55 56 57 57 58 58 59
18 18 18 18 17 17 18 18 18 19 19 20 21 23 24 23 24 27 28 26 27 28 30 30 34 37 38 41 45 45 45 45 46 50 52 52 53 54 54 56 56 57 57
16 17 16 16 16 17 17 17 17 18 18 20 21 22 24 25 25 26 26 27 28 28 30 32 33 36 37 39 42 43 43 43 43 45 47 50 52 53 53 53 54 55 55
15 15 16 16 16 16 16 16 17 18 19 20 21 23 25 26 26 27 27 27 28 29 29 30 31 33 35 37 42 42 41 40 40 42 43 46 48 49 50 51 53 52 53
14 15 15 15 15 15 15 17 22 24 24 24 24 25 27 29 30 30 29 29 29 30 30 30 30 32 33 36 39 42 39 39 39 39 40 39 44 44 46 48 49 49 51
14 15 15 15 15 15 22 25 26 26 24 24 24 24 25 28 29 31 31 32 35 33 30 30 31 31 31 36 40 41 38 38 36 40 38 38 41 42 44 47 49 50 51
14 14 15 16 16 16 23 25 29 28 26 25 25 24 24 27 30 33 34 32 31 33 36 34 30 31 31 32 40 38 38 39 37 37 37 35 37 39 43 45 49 50 50
14 15 16 16 17 18 24 25 27 28 26 24 24 25 26 26 27 26 27 28 29 29 30 30 33 34 36 34 37 39 37 34 36 36 36 33 35 36 38 43 47 49 49
15 16 16 18 19 19 24 26 26 26 24 23 24 25 25 25 27 29 29 30 29 30 32 32 31 32 35 37 38 38 35 35 33 33 35 34 33 35 35 35 43 45 46
16 17 17 18 21 19 23 26 27 27 25 25 25 26 29 28 32 31 30 31 30 28 29 31 29 30 32 35 38 39 37 35 33 33 34 33 34 33 33 35 35 40 41
Lifted_Index
18 18 19 19 19 19 19 19 18 18 17 17 16 15 14 14 13 13 12 11 9 6 3 1 -0 -1 -2 -3 -3 -3 -2 -1 -2 -2 -2 -1 -0 -0 0 1 3 3 4
19 19 19 20 20 20 20 20 19 18 18 18 17 16 15 14 13 12 11 10 9 7 4 2 0 -0 -1 -2 -3 -3 -2 -1 -1 -1 -1 -1 -0 -0 0 1 3 3 3
21 21 21 21 22 22 21 21 20 19 19 18 17 16 15 13 12 11 10 10 9 7 5 3 2 1 -0 -1 -2 -1 -0 -0 -0 -1 -1 -1 -1 -0 0 1 2 3 3
22 22 22 23 23 22 22 21 21 20 19 18 17 15 14 12 11 10 9 9 7 6 5 3 2 1 0 -1 -0 0 1 1 1 -0 -1 -2 -2 -1 0 1 2 2 2
23 23 23 23 23 22 22 21 21 20 19 17 15 14 13 11 10 9 8 7 5 4 3 2 1 1 -0 -0 0 2 2 3 2 1 -1 -2 -1 -1 0 1 2 2 2
23 23 23 23 23 23 22 21 21 19 17 15 13 12 11 10 9 7 6 4 3 2 1 1 0 -0 -0 -0 0 2 3 4 3 1 -1 -1 -1 -0 0 1 2 2 2
23 23 23 23 23 22 22 21 19 17 15 13 12 11 10 9 7 5 4 3 2 1 1 0 -0 -0 -0 -0 0 1 3 4 4 2 -0 -1 -1 -0 0 1 1 1 1
23 23 23 23 23 22 21 19 17 15 13 12 12 11 9 8 6 5 4 4 3 2 1 1 0 0 0 0 1 1 3 4 4 3 1 -1 -1 -0 -0 0 0 1 1
22 23 23 23 22 21 19 17 15 13 12 11 11 11 10 9 7 6 6 6 5 4 3 3 2 1 1 0 1 1 2 3 4 3 2 1 -0 -0 -0 0 0 1 1
22 22 22 22 21 19 17 15 13 12 11 11 11 11 11 10 9 8 7 7 7 6 5 5 3 2 1 0 0 1 1 2 2 2 2 1 0 -0 0 1 1 1 1
22 22 22 22 20 17 15 14 12 12 11 11 11 11 11 11 10 9 8 8 8 8 7 6 5 3 1 1 0 0 1 1 2 2 1 1 0 0 1 1 1 1 1
22 22 22 20 18 16 14 13 12 12 12 12 11 11 11 11 11 10 9 8 8 8 8 7 6 4 2 1 1 1 1 1 1 1 1 1 0 0 1 1 1 1 1
22 22 21 19 17 15 14 13 13 12 12 12 12 12 12 12 11 11 10 9 9 9 9 8 7 5 3 2 2 2 2 2 1 1 1 1 1 0 1 1 1 1 1
22 21 20 18 16 15 14 14 13 13 13 12 12 12 12 12 12 12 11 10 9 9 9 9 7 5 4 3 3 3 3 2 1 1 1 1 1 1 1 1 1 1 1
22 21 19 16 15 14 14 14 13 13 13 13 12 12 12 12 13 12 11 11 10 9 9 9 8 6 5 5 4 4 3 2 2 2 2 2 2 2 2 1 1 1 2
21 20 17 16 15 14 14 14 14 14 13 13 13 13 12 13 13 12 12 11 11 10 10 9 9 8 7 6 6 5 4 3 3 3 3 3 3 3 3 2 2 2 2
20 18 17 15 15 15 15 15 14 14 14 13 13 13 12 13 13 12 12 11 11 11 11 10 10 10 8 7 6 5 5 4 4 4 4 3 3 3 3 3 3 2 3
19 18 16 15 15 15 15 15 14 14 14 14 13 13 12 13 13 13 12 11 11 12 12 11 11 10 9 7 5 5 5 4 4 4 3 3 2 3 3 3 3 2 2
18 17 16 15 15 15 14 14 14 14 14 14 14 13 13 13 13 13 13 12 11 12 12 11 11 11 9 7 6 5 5 4 4 3 3 3 3 3 3 3 3 2 2
17 16 16 15 15 14 14 14 14 14 14 14 14 14 14 14 13 13 13 12 12 12 12 11 11 11 10 7 6 5 5 5 4 3 3 3 3 3 4 3 3 2 2
16 16 15 15 14 14 14 14 14 14 14 15 15 15 14 14 14 13 13 12 12 11 11 11 11 11 10 8 6 6 5 5 4 4 3 3 4 4 4 4 4 3 2
15 15 15 14 13 14 14 15 14 14 14 15 15 15 14 14 13 13 12 12 12 11 11 10 11 11 10 9 7 6 5 5 4 4 3 3 3 4 5 5 4 3 3
14 14 13 13 13 13 14 14 14 14 14 15 15 14 14 13 13 13 12 12 12 11 11 11 11 11 11 10 8 6 6 5 5 4 3 3 3 4 5 5 4 3 3
13 13 12 12 12 12 13 14 14 14 14 14 14 14 13 13 13 13 13 12 12 12 11 11 11 11 12 11 9 7 6 5 5 5 4 3 3 4 5 4 3 2 2
12 11 11 11 11 11 12 13 13 13 13 13 13 13 13 12 12 12 12 12 12 12 12 11 12 12 12 11 10 8 6 5 5 5 5 4 4 4 5 5 4 3 3
11 11 10 10 10 10 11 12 12 13 13 12 13 13 12 12 12 12 12 12 11 12 12 12 12 12 12 11 11 9 7 5 4 5 5 4 4 5 5 6 6 5 4